www.pogodaiklimat.ru

Погода и климат >> Архив погоды >> Антигуа и Барбуда >> V.C. Bird Int Airport


ПОГОДА в V.C. Bird Int Airport

  • Прогноз погоды в V.C. Bird Int Airport
  • Монитор погоды в V.C. Bird Int Airport
  • Климат города

АРХИВ ПОГОДЫ в V.C. Bird Int Airport

Время (UTC), дата Ветер
(напр.,м/с)
 
Видим.   Явления Облачность Т
(С)
Тd
(С)
f
(%)
Тe
(С)
Тes
(С)
Комфортность P
(гПа)
Po
(гПа)
Тmin
(С)
Tmax
(С)
R
(мм)
R24
(мм)
S
(см)
00 9.12 В 5 30 км 4/4 570 м
[Cu med, cong]
+25.8 +20.6 73 +32 +32 очень
душно
1019.0 1016.7 +23.8 +28.6
03 9.12 В 5 30 км 1/1 600 м
[Cu hum]
+25.4 +18.7 66 +30 +30 душно 1019.5 1017.2
06 9.12 В 5 30 км 4/4 540 м
[Cu med, cong]
+25.5 +18.9 67 +30 +30 душно 1018.6 1016.3 +23.8 +28.6
09 9.12 В 4 30 км 1/1 540 м
[Cu med, cong]
+24.9 +19.0 70 +30 +30 душно 1018.1 1015.8
12 9.12 В 5 30 км 8/8 540 м
[Cu Sc]
+25.9 +21.1 75 +33 +33 очень
душно
1019.5 1017.2 +24.8 +28.6
15 9.12 В 6 30 км 5/5 570 м
[Cu med, cong]
+28.3 +20.9 64 +35 +38 очень
душно
1020.0 1017.7
18 9.12 В 5 28 км осадки на расстоянии 4/4 540 м
[Cu Sc]
+28.2 +20.1 61 +34 +37 очень
душно
1017.6 1015.3 +24.8 +29.1
21 9.12 В 7 30 км {ливн. осадки} 4/4 600 м
[Cu Sc]
+26.2 +21.3 74 +33 +33 очень
душно
1017.6 1015.3
00 10.12 В 6 30 км {ливн. осадки} 3/3 540 м
[Cu med, cong]
+25.8 +19.5 68 +31 +31 очень
душно
1018.8 1016.5 +24.3 +29.1 0.5
03 10.12 В 5 28 км осадки на расстоянии {ливн. осадки} 8/8 540 м
[Cu Sc]
+24.3 +20.0 77 +30 +30 очень
душно
1018.7 1016.4
09 10.12 В 5 30 км 4/4 540 м
[Cu Sc]
+25.0 +20.3 75 +31 +31 очень
душно
1017.7 1015.4
12 10.12 В 6 30 км {ливн. осадки} 5/5 500 м
[Cu Sc]
+26.8 +20.3 68 +33 +34 очень
душно
1019.6 1017.3 +23.1 +29.1 0.1
15 10.12 ЮВ 6 30 км 5/5 540 м
[Cu Sc]
+28.3 +21.0 65 +36 +38 очень
душно
1019.7 1017.4
18 10.12 В 6 28 км пыль 5/5 540 м
[Cu med, cong]
+27.6 +21.1 68 +35 +37 очень
душно
1017.8 1015.5 +23.1 +28.9
21 10.12 ЮВ 4 26 км пыль 5/5 540 м
[Cu Sc]
+26.6 +20.8 71 +33 +33 очень
душно
1017.9 1015.6
00 11.12 ЮВ 4 26 км пыль 1/1 600 м
[Cu hum]
+25.8 +20.1 71 +32 +32 очень
душно
1019.4 1017.1 +24.5 +28.9
03 11.12 В 4 26 км пыль 1/1 600 м
[Cu med, cong]
+25.6 +21.1 76 +32 +32 очень
душно
1019.9 1017.6
06 11.12 В 4 26 км пыль 6/6 600 м
[Cu Sc]
+25.3 +19.7 71 +31 +31 очень
душно
1018.8 1016.5 +24.5 +28.9
09 11.12 ЮВ 2 26 км пыль 6/6 540 м
[Cu Sc]
+25.0 +20.9 78 +31 +31 очень
душно
1018.6 1016.3
12 11.12 ЮВ 2 28 км пыль 8/8 540 м
[Cu Sc]
+26.8 +21.3 72 +34 +34 очень
душно
1020.8 1018.5 +23.3 +28.9
15 11.12 В 4 28 км пыль 5/5 600 м
[Cu med, cong]
+27.8 +21.1 67 +35 +39 очень
душно
1020.4 1018.1
18 11.12 ЮВ 5 28 км пыль 4/4 540 м
[Cu Sc]
+27.3 +21.4 70 +35 +38 очень
душно
1017.7 1015.4 +23.3 +28.9
21 11.12 В 5 28 км пыль 3/3 540 м
[Cu Sc]
+26.0 +21.8 78 +33 +34 очень
душно
1017.3 1015.0
00 12.12 В 5 28 км пыль 4/4 500 м
[Cu med, cong]
+25.4 +21.7 80 +33 +33 очень
душно
1018.6 1016.3 +23.3 +28.9
03 12.12 ЮВ 4 24 км в посл. час ливневой дождь 6/6 480 м
[Cu med, cong]
+25.3 +22.0 82 +33 +33 очень
душно
1019.2 1016.9
06 12.12 ЮВ 3 28 км пыль {ливн. осадки} 1/1 600 м
[Cu med, cong]
+25.3 +20.9 77 +32 +32 очень
душно
1018.2 1015.9 +23.3 +28.9
09 12.12 ЮВ 4 28 км пыль 1/1 600 м
[Cu med, cong]
+25.1 +20.3 75 +31 +31 очень
душно
1017.7 1015.4
12 12.12 ЮВ 3 28 км пыль 3/3 600 м
[Cu med, cong]
+26.4 +20.3 69 +33 +34 очень
душно
1019.5 1017.2 +24.6 +28.9
15 12.12 ЮВ 4 28 км пыль 1/1 660 м
[Cu med, cong]
+28.3 +19.5 59 +34 +41 очень
душно
1019.2 1016.9
18 12.12 В 4 28 км пыль 3/3 600 м
[Cu med, cong]
+27.3 +20.1 65 +34 +38 очень
душно
1016.7 1014.4 +24.6 +29.0
21 12.12 В 2 28 км пыль 1/1 600 м
[Cu med, cong]
+26.2 +20.5 71 +33 +33 очень
душно
1017.0 1014.7
00 13.12 В 2 28 км пыль 1/1 540 м
[Cu hum]
+25.0 +20.5 76 +31 +31 очень
душно
1017.7 1015.4 +24.6 +29.0
03 13.12 В 3 28 км пыль 3/3 540 м
[Cu med, cong]
+25.2 +21.0 78 +32 +32 очень
душно
1018.1 1015.8
06 13.12 СВ 8 14 км слабый ливневой дождь 9/9 450 м
[Cu Sc]
+22.9 +20.9 89 +30 +30 очень
душно
1017.7 1015.4 +22.8 +29.0 0.0
09 13.12 штиль 0 28 км пыль {ливн. осадки, дождь} 6/6 480 м
[Cu Sc]
+22.1 +20.3 90 +28 +28 душно 1016.8 1014.5
12 13.12 В 6 28 км пыль {ливн. осадки, дождь} 3/3 600 м
[Cu Sc]
+26.0 +20.6 72 +32 +33 очень
душно
1018.5 1016.2 +21.1 +29.0 3
15 13.12 В 5 30 км 3/3 600 м
[Cu Sc]
+27.2 +21.1 69 +34 +38 очень
душно
1019.4 1017.1
18 13.12 В 5 28 км пыль 8/6 600 м
[Cu Sc Ac lent]
+27.7 +21.1 67 +35 +36 очень
душно
1017.9 1015.6 +21.1 +28.6
21 13.12 В 6 28 км пыль 8/8 540 м
[Cu Sc]
+25.8 +21.2 76 +33 +33 очень
душно
1018.0 1015.7
00 14.12 штиль 0 28 км пыль 6/6 540 м
[Cu Sc]
+23.1 +20.7 86 +30 +30 очень
душно
1019.2 1016.9 +21.1 +28.6
03 14.12 В 4 28 км пыль 5/5 540 м
[Sc diur, vesp]
+24.8 +21.2 80 +31 +31 очень
душно
1019.0 1016.7
06 14.12 В 3 28 км в посл. час ливневой дождь 5/5 540 м
[Cu Sc]
+24.4 +22.0 86 +31 +31 очень
душно
1018.3 1016.0 +21.1 +28.6 0.8
09 14.12 В 5 28 км пыль 4/4 540 м
[Cu med, cong]
+25.4 +20.8 76 +32 +32 очень
душно
1018.5 1016.2
12 14.12 В 6 28 км пыль 4/4 540 м
[Cu Sc]
+26.4 +20.9 72 +33 +34 очень
душно
1019.9 1017.6 +23.0 +28.6
15 14.12 В 6 28 км пыль 6/6 540 м
[Cu Sc]
+27.1 +21.3 71 +34 +36 очень
душно
1020.4 1018.1
21 14.12 В 5 30 км 4/4 600 м
[Cu med, cong]
+26.3 +20.4 70 +33 +33 очень
душно
1018.9 1016.6
00 15.12 В 6 30 км 4/4 600 м
[Cu med, cong]
+26.0 +20.3 71 +32 +32 очень
душно
1020.1 1017.8 +24.3 +28.6
03 15.12 В 6 30 км 5/5 540 м
[Cu Sc]
+26.0 +20.1 70 +32 +32 очень
душно
1020.4 1018.1
06 15.12 В 6 30 км {ливн. осадки} 1/1 600 м
[Cu med, cong]
+25.5 +19.9 71 +31 +31 очень
душно
1019.5 1017.2 +24.1 +28.6 0.4
09 15.12 В 5 30 км 1/1 540 м
[Cu med, cong]
+25.5 +20.3 73 +31 +31 очень
душно
1019.3 1017.0
12 15.12 В 5 26 км пыль 8/8 540 м
[Cu med, cong]
+26.6 +20.8 71 +33 +34 очень
душно
1021.5 1019.2 +24.1 +28.6
15 15.12 В 6 26 км пыль 4/4 570 м
[Cu med, cong]
+28.2 +20.8 64 +35 +38 очень
душно
1022.1 1019.8
18 15.12 В 6 26 км пыль 4/4 600 м
[Cu Sc]
+28.3 +20.6 63 +35 +37 очень
душно
1019.3 1017.0 +24.1 +28.6
21 15.12 В 5 26 км в посл. час ливневой дождь 9/9 540 м
[Cu Sc]
+24.7 +21.1 80 +31 +31 очень
душно
1019.7 1017.4

 

Местоположение метеостанции V.C. Bird Int Airport (Антигуа и Барбуда): широта 17.12 долгота -61.78 высота над уровнем моря 10 м.

В архиве по умолчанию представлена погода в V.C. Bird Int Airport за последнюю неделю. Архивные данные за месяц целиком и за предыдущие месяцы, начиная с января 2011 года, Вы можете получить, выбрав интересующий диапазон дат из раскрывающегося списка и нажав кнопку "Ввод!".


*Определитесь, кто Вы:
робот инопланетянин человек

Внимание! Время в таблицах - всемирное. Для получения местного времени необходимо прибавить поправку, которая в V.C. Bird Int Airport равна -4 ч.

Смотрите также архив погоды в соседних городах и на ближайших метеорологических станциях:

Погода в V.W. Amory Airport (Сент-Китс и Невис) (87 км)
Погода в Le Raizet (Гваделупа) (96 км)
Погода в R.l. Bradshaw Airport (Сент-Китс и Невис) (98 км)
Погода в Juliana Airport (Нидерландские Антилы) (174 км)
Погода в Anguilla (Ангилья) (180 км)
Погода в Canefield Airport (Доминика) (181 км)
Погода в Melville Hall Airport (Доминика) (184 км)
Погода в Le Lamentin (Мартиника) (292 км)
Погода в Vigie (Сент-Люсия) (356 км)
Погода в Charlotte Amalie St. Thomas (Виргинские Острова) (364 км)

Пояснения к столбцам:

Ветер - указаны скорость ветра в м/с - средняя за 10 мин, порывы в срок и между сроками (в фигурных скобках) и направление, откуда дует ветер: С - северный, СВ - северо-восточный, В - восточный, ЮВ - юго-восточный, Ю - южный, ЮЗ - юго-западный, З - западный, СЗ - северо-западный.
Видимость - горизонтальная дальность видимости в метрах или километрах. При видимости от 1 до 10 км при отсутствии осадков обычно наблюдается дымка, при ухудшении видимости до 1 км и менее - туман. В сухую погоду видимость может ухудшаться дымом, пылью или мглою.
Явления - указаны атмосферные явления, наблюдавшиеся в срок или в последний час перед сроком; фигурными скобками обозначены явления, наблюдавшиеся между сроками (за 1-3 часа до срока); квадратными скобками обозначены град или гололедные отложения с указанием их диаметра в мм.
Облачность - указаны через наклонную черту общая и нижняя облачность в баллах и высота нижней границы облаков в метрах; квадратными скобками обозначены формы облаков: Ci - перистые, Cs - перисто-слоистые, Cc - перисто-кучевые, Ac - высококучевые, As - высокослоистые, Sc - слоисто-кучевые, Ns - слоисто-дождевые, Cu - кучевые, Cb - кучево-дождевые. Подробнее классификацию облаков см. в Атласе облаков (PDF).
T - Температура воздуха - температура, измеренная на высоте 2 м над землей.
Td - Температура точки росы - температура, при понижении до которой содержащийся в воздухе водяной пар достигнет насыщения.
f - Относительная влажность воздуха - влажноcть воздуха, измеренная на высоте 2 м над землей.
Te - Эффективная температура - температура, которую ощущает одетый по сезону человек в тени. Характеристика душности погоды. При расчете учитывается влияние влажности воздуха и скорости ветра на теплоощущения человека.
Tes - Эффективная температура на солнце - температура, которую ощущает человек, с поправкой на солнечный нагрев. Характеристика знойности погоды. Зависит от высоты солнца над горизонтом, облачности и скорости ветра. Ночью, в пасмурную погоду, а также при ветре 12 м/с и более поправка равна нулю.
P - Атмосферное давление - приведенное к уровню моря атмосферное давление.
Po - Атмосферное давление - измеренное на уровне метеостанции атмосферное давление.
Tmin - Минимальная температура - минимум температуры воздуха на высоте 2 м над землей.
Tmax - Максимальная температура - максимум температуры воздуха на высоте 2 м над землей.
R - Количество осадков - Количество выпавших осадков за период времени, мм. При наведении курсора мыши на число - период времени, за который выпало указанное количество осадков.
R24 - Количество осадков - Количество выпавших осадков за 24 часа, мм.
S - Снежный покров - Высота снежного покрова, см. При наведении курсора мыши на число - состояние снежного покрова и степень покрытия местности в баллах.